FLOCK 2K-7 (42862 NORAD) Tracking and Keplerian Element Data

This shows tracking and keplerian element data for the satellite.

Feedback or suggestion? Click here.




ElementValue
Catalog42862
NameFLOCK 2K-7
Epoch Orbit27529
Epoch Day157.08019447
Epoch Year2022
RAAN358.7668
Inclination96.8031
Eccentricity0.0010379
Argument of Perigee237.7635
Mean Anonmoly122.2636
Mean Motion15.94102734
Decay Rate0.00817189
L11 42862U 17042AP 22157.08019447 .00817189 28832-3 22242-2 0 9990
L22 42862 96.8031 358.7668 0010379 237.7635 122.2636 15.94102734275290

Live tracking and technical data element details for FLOCK 2K-7 (NORAD 42862). FLOCK 2K-7 can be tracked NOW for your location showing map with azimuth and elevation plus other details from your city location.

Track the satellite on the map from your city or location and see movement details for azimuth, elevation, latitude, longitude, range, height, and movement on the map or in text.







IsCatalogInMostPopularTable: catalog: 42862, numindb: 592
Update: records affected: 1



GetName: 42862 FLOCK 2K-7

Hit Count: updated at: Fri, 30 Sep 2022 03:16:27 GMT